Time,TemperatureF,DewpointF,PressureIn,WindDirection,WindDirectionDegrees,WindSpeedMPH,WindSpeedGustMPH,Humidity,HourlyPrecipIn,Conditions,Clouds,dailyrainin,SoftwareType,DateUTC
2013-02-11 00:02:00,29.0,28.0,-100.00,WNW,285,24.0,29.0,97,0.00,,,-99.99,,2013-02-11 06:02:00,
2013-02-11 00:11:00,29.0,28.0,-100.00,WNW,285,22.0,31.0,97,0.00,,,-99.99,,2013-02-11 06:11:00,
2013-02-11 00:21:00,28.0,28.0,-100.00,WNW,285,24.0,32.0,97,0.00,,,-99.99,,2013-02-11 06:21:00,
2013-02-11 00:32:00,28.0,27.0,-100.00,WNW,290,24.0,30.0,96,0.00,,,-99.99,,2013-02-11 06:32:00,
2013-02-11 00:42:00,28.0,27.0,-100.00,WNW,290,24.0,30.0,96,0.00,,,-99.99,,2013-02-11 06:42:00,
2013-02-11 00:51:00,28.0,27.0,-100.00,West,280,25.0,31.0,95,0.01,,,-99.99,,2013-02-11 06:51:00,
2013-02-11 01:01:00,28.0,27.0,-100.00,West,280,25.0,31.0,95,0.01,,,-99.99,,2013-02-11 07:01:00,
2013-02-11 01:11:00,28.0,27.0,-100.00,West,280,23.0,33.0,95,0.01,,,-99.99,,2013-02-11 07:11:00,
2013-02-11 01:21:00,28.0,27.0,-100.00,WNW,290,24.0,31.0,94,0.01,,,-99.99,,2013-02-11 07:21:00,
2013-02-11 01:32:00,28.0,26.0,-100.00,WNW,290,26.0,34.0,94,0.04,,,-99.99,,2013-02-11 07:32:00,
2013-02-11 01:41:00,28.0,26.0,-100.00,WNW,290,26.0,34.0,94,0.04,,,-99.99,,2013-02-11 07:41:00,
2013-02-11 01:52:00,28.0,26.0,-100.00,WNW,285,23.0,32.0,93,0.04,,,-99.99,,2013-02-11 07:52:00,
2013-02-11 02:01:00,28.0,26.0,-100.00,WNW,285,23.0,32.0,93,0.04,,,-99.99,,2013-02-11 08:01:00,
2013-02-11 02:11:00,28.0,26.0,-100.00,WNW,285,19.0,32.0,93,0.13,,,-99.99,,2013-02-11 08:11:00,
2013-02-11 02:21:00,28.0,26.0,-100.00,WNW,285,20.0,31.0,93,0.18,,,-99.99,,2013-02-11 08:21:00,
2013-02-11 02:31:00,28.0,26.0,-100.00,WNW,290,23.0,31.0,93,0.01,,,-99.99,,2013-02-11 08:31:00,
2013-02-11 02:42:00,28.0,26.0,-100.00,WNW,290,23.0,31.0,93,0.01,,,-99.99,,2013-02-11 08:42:00,
2013-02-11 02:52:00,28.0,25.0,-100.00,WNW,290,24.0,32.0,90,0.01,,,-99.99,,2013-02-11 08:52:00,
2013-02-11 03:01:00,28.0,25.0,-100.00,WNW,290,24.0,32.0,90,0.01,,,-99.99,,2013-02-11 09:01:00,
2013-02-11 03:12:00,28.0,25.0,-100.00,WNW,290,27.0,35.0,90,0.00,,,-99.99,,2013-02-11 09:12:00,
2013-02-11 03:21:00,27.0,25.0,-100.00,WNW,295,23.0,37.0,90,0.00,,,-99.99,,2013-02-11 09:21:00,
2013-02-11 03:32:00,27.0,25.0,-100.00,WNW,290,23.0,33.0,90,0.01,,,-99.99,,2013-02-11 09:32:00,
2013-02-11 03:41:00,27.0,25.0,-100.00,WNW,290,23.0,33.0,90,0.01,,,-99.99,,2013-02-11 09:41:00,
2013-02-11 03:51:00,27.0,25.0,-100.00,WNW,285,24.0,34.0,90,0.00,,,-99.99,,2013-02-11 09:51:00,
2013-02-11 04:01:00,27.0,25.0,-100.00,WNW,285,24.0,34.0,90,0.00,,,-99.99,,2013-02-11 10:01:00,
2013-02-11 04:11:00,27.0,25.0,-100.00,WNW,290,23.0,31.0,89,0.00,,,-99.99,,2013-02-11 10:11:00,
2013-02-11 04:21:00,27.0,24.0,-100.00,WNW,290,22.0,32.0,90,0.01,,,-99.99,,2013-02-11 10:21:00,
2013-02-11 04:31:00,27.0,24.0,-100.00,WNW,295,22.0,34.0,90,0.01,,,-99.99,,2013-02-11 10:31:00,
2013-02-11 04:41:00,27.0,24.0,-100.00,WNW,295,22.0,34.0,90,0.01,,,-99.99,,2013-02-11 10:41:00,
2013-02-11 04:51:00,26.0,24.0,-100.00,WNW,290,24.0,34.0,90,0.00,,,-99.99,,2013-02-11 10:51:00,
2013-02-11 05:01:00,26.0,24.0,-100.00,WNW,290,24.0,34.0,90,0.00,,,-99.99,,2013-02-11 11:01:00,
2013-02-11 05:11:00,26.0,24.0,-100.00,WNW,290,26.0,33.0,90,0.00,,,-99.99,,2013-02-11 11:11:00,
2013-02-11 05:22:00,26.0,24.0,-100.00,WNW,295,26.0,34.0,90,0.01,,,-99.99,,2013-02-11 11:22:00,
2013-02-11 05:32:00,26.0,24.0,-100.00,WNW,290,22.0,32.0,90,0.03,,,-99.99,,2013-02-11 11:32:00,
2013-02-11 05:42:00,26.0,24.0,-100.00,WNW,290,22.0,32.0,90,0.03,,,-99.99,,2013-02-11 11:42:00,
2013-02-11 05:52:00,26.0,23.0,-100.00,WNW,295,23.0,37.0,90,0.01,,,-99.99,,2013-02-11 11:52:00,
2013-02-11 06:03:00,26.0,23.0,-100.00,WNW,295,23.0,37.0,90,0.01,,,-99.99,,2013-02-11 12:03:00,
2013-02-11 06:12:00,26.0,23.0,-100.00,WNW,290,25.0,37.0,90,0.00,,,-99.99,,2013-02-11 12:12:00,
2013-02-11 06:22:00,26.0,23.0,-100.00,WNW,295,28.0,37.0,90,0.00,,,-99.99,,2013-02-11 12:22:00,
2013-02-11 06:32:00,25.0,23.0,-100.00,WNW,290,28.0,39.0,90,0.00,,,-99.99,,2013-02-11 12:32:00,
2013-02-11 06:42:00,25.0,23.0,-100.00,WNW,290,28.0,39.0,90,0.00,,,-99.99,,2013-02-11 12:42:00,
2013-02-11 06:52:00,25.0,23.0,-100.00,WNW,300,24.0,32.0,89,0.00,,,-99.99,,2013-02-11 12:52:00,
2013-02-11 07:02:00,25.0,23.0,-100.00,WNW,300,24.0,32.0,89,0.00,,,-99.99,,2013-02-11 13:02:00,
2013-02-11 07:11:00,25.0,22.0,-100.00,WNW,295,26.0,34.0,89,0.00,,,-99.99,,2013-02-11 13:11:00,
2013-02-11 07:22:00,24.0,22.0,-100.00,WNW,295,29.0,37.0,89,0.00,,,-99.99,,2013-02-11 13:22:00,
2013-02-11 07:32:00,24.0,21.0,-100.00,WNW,285,26.0,39.0,88,0.00,,,-99.99,,2013-02-11 13:32:00,
2013-02-11 07:42:00,24.0,21.0,-100.00,WNW,285,26.0,39.0,88,0.00,,,-99.99,,2013-02-11 13:42:00,
2013-02-11 07:52:00,24.0,21.0,-100.00,WSW,240,29.0,38.0,88,0.00,,,-99.99,,2013-02-11 13:52:00,
2013-02-11 08:01:00,24.0,21.0,-100.00,WSW,240,29.0,38.0,88,0.00,,,-99.99,,2013-02-11 14:01:00,
2013-02-11 08:11:00,24.0,21.0,-100.00,WSW,240,29.0,38.0,88,0.00,,,-99.99,,2013-02-11 14:11:00,
2013-02-11 08:21:00,24.0,21.0,-100.00,WNW,295,26.0,37.0,87,0.00,,,-99.99,,2013-02-11 14:21:00,
2013-02-11 08:32:00,24.0,20.0,-100.00,WNW,290,26.0,40.0,86,0.00,,,-99.99,,2013-02-11 14:32:00,
2013-02-11 08:42:00,24.0,20.0,-100.00,WNW,290,26.0,40.0,86,0.00,,,-99.99,,2013-02-11 14:42:00,
2013-02-11 08:53:00,24.0,20.0,-100.00,WNW,290,23.0,36.0,86,0.00,,,-99.99,,2013-02-11 14:53:00,
2013-02-11 09:02:00,24.0,20.0,-100.00,WNW,290,23.0,36.0,86,0.00,,,-99.99,,2013-02-11 15:02:00,
2013-02-11 09:11:00,24.0,20.0,-100.00,WNW,290,28.0,37.0,85,0.00,,,-99.99,,2013-02-11 15:11:00,
2013-02-11 09:22:00,24.0,20.0,-100.00,WNW,295,26.0,34.0,84,0.00,,,-99.99,,2013-02-11 15:22:00,
2013-02-11 09:32:00,24.0,19.0,-100.00,WNW,290,24.0,34.0,83,0.00,,,-99.99,,2013-02-11 15:32:00,
2013-02-11 09:42:00,24.0,19.0,-100.00,WNW,290,24.0,34.0,83,0.00,,,-99.99,,2013-02-11 15:42:00,
2013-02-11 09:52:00,24.0,19.0,-100.00,WNW,290,27.0,33.0,82,0.00,,,-99.99,,2013-02-11 15:52:00,
2013-02-11 10:02:00,24.0,19.0,-100.00,WNW,290,27.0,33.0,82,0.00,,,-99.99,,2013-02-11 16:02:00,
2013-02-11 10:11:00,24.0,19.0,-100.00,WNW,295,27.0,34.0,82,0.00,,,-99.99,,2013-02-11 16:11:00,
2013-02-11 10:22:00,24.0,19.0,-100.00,WNW,300,26.0,36.0,82,0.00,,,-99.99,,2013-02-11 16:22:00,
2013-02-11 10:32:00,24.0,19.0,-100.00,WNW,295,26.0,34.0,82,0.00,,,-99.99,,2013-02-11 16:32:00,
2013-02-11 10:42:00,24.0,19.0,-100.00,WNW,295,26.0,34.0,82,0.00,,,-99.99,,2013-02-11 16:42:00,
2013-02-11 10:52:00,24.0,20.0,-100.00,WNW,290,23.0,35.0,82,0.00,,,-99.99,,2013-02-11 16:52:00,
2013-02-11 11:01:00,24.0,20.0,-100.00,WNW,290,23.0,35.0,82,0.00,,,-99.99,,2013-02-11 17:01:00,
2013-02-11 11:11:00,24.0,19.0,-100.00,WNW,285,27.0,34.0,81,0.00,,,-99.99,,2013-02-11 17:11:00,
2013-02-11 11:21:00,25.0,20.0,-100.00,NW,305,23.0,40.0,80,0.00,,,-99.99,,2013-02-11 17:21:00,
2013-02-11 11:32:00,24.0,19.0,-100.00,WNW,300,29.0,39.0,80,0.00,,,-99.99,,2013-02-11 17:32:00,
2013-02-11 11:42:00,24.0,19.0,-100.00,WNW,300,29.0,39.0,80,0.00,,,-99.99,,2013-02-11 17:42:00,
2013-02-11 11:52:00,25.0,19.0,-100.00,WNW,290,27.0,42.0,77,0.00,,,-99.99,,2013-02-11 17:52:00,
2013-02-11 12:01:00,25.0,19.0,-100.00,WNW,290,27.0,42.0,77,0.00,,,-99.99,,2013-02-11 18:01:00,
2013-02-11 12:11:00,25.0,19.0,-100.00,WNW,295,25.0,37.0,78,0.00,,,-99.99,,2013-02-11 18:11:00,
2013-02-11 12:21:00,25.0,19.0,-100.00,WNW,285,22.0,32.0,79,0.00,,,-99.99,,2013-02-11 18:21:00,
2013-02-11 12:32:00,25.0,19.0,-100.00,WNW,290,25.0,31.0,80,0.00,,,-99.99,,2013-02-11 18:32:00,
2013-02-11 12:42:00,25.0,19.0,-100.00,WNW,290,25.0,31.0,80,0.00,,,-99.99,,2013-02-11 18:42:00,
2013-02-11 12:52:00,25.0,18.0,-100.00,WNW,295,25.0,39.0,76,0.00,,,-99.99,,2013-02-11 18:52:00,
2013-02-11 13:02:00,25.0,18.0,-100.00,WNW,295,25.0,39.0,76,0.00,,,-99.99,,2013-02-11 19:02:00,
2013-02-11 13:11:00,25.0,19.0,-100.00,WNW,290,26.0,34.0,76,0.00,,,-99.99,,2013-02-11 19:11:00,
2013-02-11 13:21:00,25.0,18.0,-100.00,WNW,290,26.0,34.0,77,0.00,,,-99.99,,2013-02-11 19:21:00,
2013-02-11 13:32:00,25.0,18.0,-100.00,WNW,290,28.0,36.0,75,0.00,,,-99.99,,2013-02-11 19:32:00,
2013-02-11 13:41:00,25.0,18.0,-100.00,WNW,290,28.0,36.0,75,0.00,,,-99.99,,2013-02-11 19:41:00,
2013-02-11 13:51:00,25.0,18.0,-100.00,WNW,290,27.0,37.0,74,0.00,,,-99.99,,2013-02-11 19:51:00,
2013-02-11 14:01:00,25.0,18.0,-100.00,WNW,290,27.0,37.0,74,0.00,,,-99.99,,2013-02-11 20:01:00,
2013-02-11 14:11:00,25.0,18.0,-100.00,WNW,290,20.0,33.0,76,0.00,,,-99.99,,2013-02-11 20:11:00,
2013-02-11 14:21:00,25.0,19.0,-100.00,WNW,295,21.0,32.0,76,0.00,,,-99.99,,2013-02-11 20:21:00,
2013-02-11 14:32:00,25.0,19.0,-100.00,WNW,290,22.0,30.0,77,0.00,,,-99.99,,2013-02-11 20:32:00,
2013-02-11 14:41:00,25.0,19.0,-100.00,WNW,290,22.0,30.0,77,0.00,,,-99.99,,2013-02-11 20:41:00,
2013-02-11 14:52:00,24.0,19.0,-100.00,WNW,290,22.0,32.0,79,0.00,,,-99.99,,2013-02-11 20:52:00,
2013-02-11 15:02:00,24.0,19.0,-100.00,WNW,290,22.0,32.0,79,0.00,,,-99.99,,2013-02-11 21:02:00,
2013-02-11 15:11:00,24.0,19.0,-100.00,WNW,295,26.0,34.0,79,0.00,,,-99.99,,2013-02-11 21:11:00,
2013-02-11 15:21:00,24.0,18.0,-100.00,WNW,295,25.0,36.0,78,0.00,,,-99.99,,2013-02-11 21:21:00,
2013-02-11 15:32:00,24.0,18.0,-100.00,WNW,295,22.0,29.0,79,0.01,,,-99.99,,2013-02-11 21:32:00,
2013-02-11 15:41:00,24.0,18.0,-100.00,WNW,295,22.0,29.0,79,0.01,,,-99.99,,2013-02-11 21:41:00,
2013-02-11 15:51:00,24.0,18.0,-100.00,WNW,285,22.0,35.0,77,0.00,,,-99.99,,2013-02-11 21:51:00,
2013-02-11 16:01:00,24.0,18.0,-100.00,WNW,285,22.0,35.0,77,0.00,,,-99.99,,2013-02-11 22:01:00,
2013-02-11 16:11:00,23.0,17.0,-100.00,WNW,290,24.0,36.0,76,0.00,,,-99.99,,2013-02-11 22:11:00,
2013-02-11 16:21:00,22.0,16.0,-100.00,West,275,24.0,32.0,75,0.00,,,-99.99,,2013-02-11 22:21:00,
2013-02-11 16:32:00,22.0,16.0,-100.00,WSW,240,24.0,35.0,75,0.00,,,-99.99,,2013-02-11 22:32:00,
2013-02-11 16:42:00,22.0,16.0,-100.00,WSW,240,24.0,35.0,75,0.00,,,-99.99,,2013-02-11 22:42:00,
2013-02-11 16:52:00,22.0,15.0,-100.00,WNW,285,22.0,32.0,73,0.00,,,-99.99,,2013-02-11 22:52:00,
2013-02-11 17:02:00,22.0,15.0,-100.00,WNW,285,22.0,32.0,73,0.00,,,-99.99,,2013-02-11 23:02:00,
2013-02-11 17:11:00,22.0,15.0,-100.00,WNW,300,22.0,29.0,75,0.00,,,-99.99,,2013-02-11 23:11:00,
2013-02-11 17:21:00,22.0,16.0,-100.00,WNW,285,19.0,25.0,77,0.00,,,-99.99,,2013-02-11 23:21:00,
2013-02-11 17:32:00,22.0,17.0,-100.00,West,280,19.0,27.0,81,0.00,,,-99.99,,2013-02-11 23:32:00,
2013-02-11 17:41:00,22.0,17.0,-100.00,West,280,19.0,27.0,81,0.00,,,-99.99,,2013-02-11 23:41:00,
2013-02-11 17:52:00,22.0,17.0,-100.00,WNW,295,20.0,26.0,82,0.00,,,-99.99,,2013-02-11 23:52:00,
2013-02-11 18:01:00,22.0,17.0,-100.00,WNW,295,20.0,26.0,82,0.00,,,-99.99,,2013-02-12 00:01:00,
2013-02-11 18:11:00,22.0,17.0,-100.00,West,280,20.0,27.0,82,0.00,,,-99.99,,2013-02-12 00:11:00,
2013-02-11 18:22:00,21.0,16.0,-100.00,WNW,285,22.0,27.0,81,0.00,,,-99.99,,2013-02-12 00:22:00,
2013-02-11 18:32:00,21.0,15.0,-100.00,WNW,290,17.0,24.0,77,0.00,,,-99.99,,2013-02-12 00:32:00,
2013-02-11 18:42:00,21.0,15.0,-100.00,WNW,290,17.0,24.0,77,0.00,,,-99.99,,2013-02-12 00:42:00,
2013-02-11 18:52:00,21.0,15.0,-100.00,WNW,285,16.0,22.0,78,0.00,,,-99.99,,2013-02-12 00:52:00,
2013-02-11 19:02:00,21.0,15.0,-100.00,WNW,285,16.0,22.0,78,0.00,,,-99.99,,2013-02-12 01:02:00,
2013-02-11 19:11:00,21.0,15.0,-100.00,WNW,295,15.0,27.0,76,0.00,,,-99.99,,2013-02-12 01:11:00,
2013-02-11 19:21:00,21.0,15.0,-100.00,West,280,20.0,29.0,76,0.00,,,-99.99,,2013-02-12 01:21:00,
2013-02-11 19:32:00,22.0,15.0,-100.00,WNW,295,17.0,27.0,75,0.00,,,-99.99,,2013-02-12 01:32:00,
2013-02-11 19:42:00,22.0,15.0,-100.00,WNW,295,17.0,27.0,75,0.00,,,-99.99,,2013-02-12 01:42:00,
2013-02-11 19:51:00,22.0,16.0,-100.00,WNW,295,12.0,18.0,77,0.00,,,-99.99,,2013-02-12 01:51:00,
2013-02-11 20:01:00,22.0,16.0,-100.00,WNW,295,12.0,18.0,77,0.00,,,-99.99,,2013-02-12 02:01:00,
2013-02-11 20:11:00,22.0,16.0,-100.00,WNW,290,15.0,22.0,77,0.00,,,-99.99,,2013-02-12 02:11:00,
2013-02-11 20:21:00,22.0,16.0,-100.00,WNW,290,13.0,20.0,77,0.00,,,-99.99,,2013-02-12 02:21:00,
2013-02-11 20:31:00,21.0,17.0,-100.00,WNW,290,12.0,20.0,81,0.00,,,-99.99,,2013-02-12 02:31:00,
2013-02-11 20:41:00,21.0,17.0,-100.00,WNW,290,12.0,20.0,81,0.00,,,-99.99,,2013-02-12 02:41:00,
2013-02-11 20:52:00,21.0,16.0,-100.00,WNW,285,12.0,21.0,80,0.00,,,-99.99,,2013-02-12 02:52:00,
2013-02-11 21:02:00,21.0,16.0,-100.00,WNW,285,12.0,21.0,80,0.00,,,-99.99,,2013-02-12 03:02:00,
2013-02-11 21:11:00,21.0,15.0,-100.00,WSW,240,14.0,21.0,78,0.00,,,-99.99,,2013-02-12 03:11:00,
2013-02-11 21:21:00,21.0,15.0,-100.00,West,260,16.0,19.0,77,0.00,,,-99.99,,2013-02-12 03:21:00,
2013-02-11 21:31:00,21.0,15.0,-100.00,WNW,290,14.0,19.0,77,0.00,,,-99.99,,2013-02-12 03:31:00,
2013-02-11 21:41:00,21.0,15.0,-100.00,WNW,290,14.0,19.0,77,0.00,,,-99.99,,2013-02-12 03:41:00,
2013-02-11 21:51:00,21.0,15.0,-100.00,WNW,290,12.0,16.0,78,0.00,,,-99.99,,2013-02-12 03:51:00,
2013-02-11 22:01:00,21.0,15.0,-100.00,WNW,290,12.0,16.0,78,0.00,,,-99.99,,2013-02-12 04:01:00,
2013-02-11 22:11:00,21.0,16.0,-100.00,WNW,285,11.0,14.0,79,0.00,,,-99.99,,2013-02-12 04:11:00,
2013-02-11 22:21:00,21.0,16.0,-100.00,WNW,290,12.0,15.0,79,0.00,,,-99.99,,2013-02-12 04:21:00,
2013-02-11 22:31:00,21.0,15.0,-100.00,WNW,285,14.0,20.0,78,0.00,,,-99.99,,2013-02-12 04:31:00,
2013-02-11 22:41:00,21.0,15.0,-100.00,WNW,285,14.0,20.0,78,0.00,,,-99.99,,2013-02-12 04:41:00,
2013-02-11 22:51:00,21.0,15.0,-100.00,WNW,295,12.0,18.0,77,0.00,,,-99.99,,2013-02-12 04:51:00,
2013-02-11 23:01:00,21.0,15.0,-100.00,WNW,295,12.0,18.0,77,0.00,,,-99.99,,2013-02-12 05:01:00,
2013-02-11 23:11:00,21.0,15.0,-100.00,WNW,285,14.0,19.0,77,0.00,,,-99.99,,2013-02-12 05:11:00,
2013-02-11 23:21:00,21.0,15.0,-100.00,NW,310,9.0,17.0,77,0.00,,,-99.99,,2013-02-12 05:21:00,
2013-02-11 23:31:00,20.0,15.0,-100.00,WNW,290,11.0,16.0,77,0.00,,,-99.99,,2013-02-12 05:31:00,
2013-02-11 23:42:00,20.0,15.0,-100.00,WNW,290,11.0,16.0,77,0.00,,,-99.99,,2013-02-12 05:42:00,
2013-02-11 23:52:00,20.0,14.0,-100.00,West,280,11.0,13.0,78,0.00,,,-99.99,,2013-02-12 05:52:00,